Simultaneous Nadir Overpasses (SNOs) Predictions

Prediction of SNOs between GOES-16 and METOP-C Satellite Orbit:

Table of predicted SNOs for the next 14.0 days since TLE Epoch: 7/6/2024
Index Date Time (GOES-16) GOES-16 Lat,Lon METOP-C Lat,Lon Distance(km) Time Diff (sec)
1 07/06/2024 14:30:46 0.03, -75.20 -0.08, -74.78 47.90 80
2 07/08/2024 02:47:07 -0.02, -75.21 -0.95, -79.38 475.39 80
3 07/09/2024 02:29:08 -0.02, -75.21 0.14, -74.38 94.65 80
4 07/10/2024 14:45:20 0.01, -75.23 0.85, -78.94 423.09 80
5 07/11/2024 14:27:22 0.01, -75.24 -0.30, -73.95 147.49 80
6 07/13/2024 02:43:42 -0.01, -75.26 -0.76, -78.54 374.09 80
7 07/14/2024 02:25:43 -0.01, -75.28 0.40, -73.55 196.92 80
8 07/15/2024 14:41:55 0.01, -75.30 0.64, -78.11 319.66 80
9 07/16/2024 14:23:55 0.02, -75.32 -0.46, -73.11 251.48 80
10 07/18/2024 02:40:17 -0.02, -75.34 -0.52, -77.71 269.34 80
11 07/19/2024 02:19:37 -0.02, -75.36 0.59, -72.71 301.84 80
